EW9168 Weather Reports


time (UTC)temp
F
wind
direction
speed
knots
gust
knots
rain 1hr
in
rain 24hr
in
rain mn
in
humidity
%
barometer
mb
20260506212021 60 293 1.7 6.1 0.11 0.69 0.69 95 1003.9
20260506211021 60 270 0.9 3.5 0.09 0.69 0.67 97 1003.5
20260506210041 60 180 0.9 3.5 0.07 0.67 0.65 96 1003.4
20260506205022 61 180 0.9 5.2 0.07 0.67 0.64 97 1003.4
20260506204021 61 0.0 0.9 0.05 0.76 0.62 96 1003.5
20260506203021 61 0.0 2.6 0.02 0.73 0.59 96 1003.6
20260506202017 61 0.0 7.8 0.01 0.72 0.58 95 1003.6
20260506201021 61 0.0 4.3 0.01 0.72 0.58 95 1003.7
20260506200021 61 158 0.9 6.1 0.01 0.72 0.58 95 1003.8
20260506195022 61 0.0 3.5 0.01 0.71 0.57 95 1003.9
20260506194101 61 180 1.7 5.2 0.01 0.71 0.57 94 1004.0
20260506193021 61 158 1.7 7.0 0.02 0.71 0.57 94 1004.1
20260506192018 61 180 0.9 4.3 0.05 0.71 0.57 95 1004.1
20260506191023 60 0.0 2.6 0.17 0.71 0.57 96 1004.2
20260506190021 59 203 0.9 3.5 0.30 0.71 0.57 97 1004.4
20260506185041 59 225 0.9 3.5 0.38 0.70 0.56 97 1004.4
20260506184021 59 0.0 2.6 0.41 0.70 0.56 98 1004.5
20260506183019 58 203 0.9 5.2 0.43 0.69 0.55 98 1004.6
20260506182021 58 270 0.9 4.3 0.42 0.66 0.52 97 1004.7
20260506181017 59 338 0.9 4.3 0.31 0.54 0.40 97 1004.7
20260506180021 59 0.0 1.7 0.19 0.41 0.27 96 1004.8
20260506175042 60 270 0.9 3.5 0.10 0.32 0.18 96 1004.9
20260506174021 60 180 0.9 4.3 0.09 0.29 0.15 96 1004.9
20260506173021 60 135 2.6 10.4 0.06 0.26 0.12 95 1005.0
20260506172021 60 135 1.7 7.8 0.05 0.24 0.10 95 1005.1
20260506171021 60 90 1.7 6.1 0.04 0.23 0.09 95 1005.1
20260506170017 60 135 1.7 7.0 0.04 0.22 0.08 95 1005.3
20260506165021 59 0.0 1.7 0.04 0.22 0.08 95 1005.3
20260506164023 59 0.0 3.5 0.02 0.20 0.06 95 1005.7
20260506163021 59 135 2.6 7.0 0.02 0.20 0.06 94 1005.7
20260506162021 59 135 2.6 7.8 0.02 0.19 0.05 95 1005.7
20260506161021 59 113 1.7 7.0 0.02 0.19 0.05 94 1005.8
20260506160021 59 113 2.6 7.0 0.02 0.18 0.04 94 1006.2
20260506155017 59 135 1.7 8.7 0.02 0.18 0.04 94 1006.5
20260506154021 59 113 0.9 4.3 0.03 0.18 0.04 94 1006.6
20260506153021 59 0.0 2.6 0.03 0.18 0.04 94 1006.7
20260506152021 59 0.0 0.9 0.02 0.17 0.03 94 1006.9
20260506151041 59 0.0 0.0 0.02 0.17 0.03 93 1007.0
20260506150022 59 0.0 0.0 0.01 0.16 0.02 93 1007.0
20260506145018 59 0.0 2.6 0.01 0.16 0.02 92 1006.9
20260506144022 59 158 0.9 5.2 0.00 0.15 0.01 90 1006.9
20260506143041 60 203 0.9 3.5 0.00 0.15 0.01 89 1007.1
20260506142041 60 0.0 2.6 0.00 0.15 0.01 88 1006.9
20260506141023 60 0.0 1.7 0.00 0.15 0.01 88 1006.9
20260506140019 60 0.0 3.5 0.00 0.15 0.01 87 1006.9
20260506135041 59 0.0 1.7 0.00 0.15 0.01 88 1006.8
20260506134017 59 113 0.9 4.3 0.00 0.15 0.01 88 1006.7
20260506133021 59 0.0 2.6 0.00 0.15 0.01 89 1007.0
20260506132021 58 0.0 1.7 0.00 0.15 0.01 91 1007.3
20260506131021 58 0.0 2.6 0.00 0.15 0.01 90 1007.5
20260506125021 58 0.0 4.3 0.00 0.15 0.01 88 1006.8
20260506124042 58 135 0.9 5.2 0.00 0.15 0.01 88 1007.4
20260506123017 58 0.0 3.5 0.00 0.15 0.01 90 1007.3
20260506122021 58 135 0.9 6.1 0.00 0.15 0.01 88 1007.3
20260506121041 58 180 2.6 7.8 0.00 0.15 0.01 89 1007.4
20260506120022 57 158 2.6 9.6 0.00 0.15 0.01 90 1007.3
20260506115021 57 180 2.6 8.7 0.00 0.15 0.01 92 1007.2
20260506114041 56 0.0 2.6 0.00 0.15 0.01 96 1007.3
20260506113017 56 0.0 0.9 0.00 0.15 0.01 97 1007.3
20260506112037 56 0.0 0.0 0.00 0.15 0.01 97 1007.5
20260506111021 55 0.0 0.0 0.00 0.15 0.01 98 1007.6
20260506110041 55 0.0 0.0 0.00 0.15 0.01 97 1007.5
20260506105021 55 0.0 0.0 0.00 0.15 0.01 97 1007.3
20260506104022 55 0.0 0.0 0.00 0.15 0.01 97 1007.4
20260506103021 55 0.0 0.0 0.00 0.15 0.01 97 1007.5
20260506102017 55 0.0 0.0 0.00 0.15 0.01 97 1007.3
20260506101021 55 0.0 0.0 0.00 0.15 0.01 96 1007.2
20260506100021 55 0.0 0.0 0.00 0.15 0.01 96 1007.3
20260506095022 55 0.0 0.0 0.00 0.15 0.01 96 1007.3
20260506094021 55 0.0 0.0 0.00 0.15 0.01 96 1007.3
20260506093019 56 0.0 0.0 0.00 0.15 0.01 96 1007.3
20260506092021 56 0.0 0.0 0.00 0.15 0.01 95 1007.5
20260506091017 56 0.0 0.0 0.00 0.15 0.01 95 1007.5
20260506090021 56 0.0 0.0 0.00 0.15 0.01 95 1007.6
20260506085021 56 0.0 0.0 0.00 0.15 0.01 96 1007.9
20260506084022 56 0.0 0.0 0.00 0.15 0.01 96 1008.3
20260506083041 56 0.0 0.0 0.00 0.15 0.01 96 1008.4
20260506082021 57 0.0 0.0 0.00 0.15 0.01 95 1008.3
20260506081021 57 0.0 0.9 0.00 0.15 0.01 95 1008.1
20260506073021 57 0.0 0.0 0.00 0.15 0.01 95 1008.5
20260506072021 57 0.0 0.9 0.00 0.15 0.01 94 1008.3
20260506071021 58 0.0 0.0 0.00 0.15 0.01 94 1008.6
20260506062021 59 0.0 0.0 0.00 0.15 0.01 93 1008.5
20260506061021 60 0.0 0.0 0.00 0.15 0.01 92 1009.0
20260506051021 58 0.0 0.0 0.01 0.15 0.01 93 1008.4
20260506045021 59 0.0 1.7 0.01 0.15 0.01 92 1008.0
20260506044018 60 0.0 0.0 0.01 0.15 0.01 91 1008.3
20260506043021 61 0.0 0.0 0.01 0.15 0.01 89 1008.4
20260506042021 62 0.0 0.0 0.00 0.14 0.00 86 1008.3
20260506041021 63 0.0 0.9 0.00 0.14 0.00 82 1008.1
20260506040041 63 0.0 0.0 0.00 0.14 0.14 81 1008.2
20260506035041 63 0.0 1.7 0.00 0.14 0.14 80 1007.9
20260506034017 62 180 0.9 5.2 0.00 0.14 0.14 81 1007.9
20260506033020 62 180 0.9 4.3 0.00 0.14 0.14 83 1007.8
20260506032020 61 135 0.9 7.8 0.00 0.14 0.14 83 1007.8
20260506031041 61 0.0 1.7 0.00 0.14 0.14 85 1007.7
20260506030040 61 0.0 0.9 0.00 0.14 0.14 86 1007.7
20260506025020 61 0.0 0.0 0.00 0.14 0.14 86 1007.6
20260506024017 61 0.0 0.9 0.00 0.14 0.14 85 1007.7
20260506023037 61 0.0 3.5 0.00 0.14 0.14 85 1007.5
20260506022020 61 0.0 2.6 0.00 0.14 0.14 85 1007.5
20260506021020 60 0.0 4.3 0.00 0.14 0.14 86 1007.5
20260506020041 59 0.0 1.7 0.00 0.14 0.14 88 1007.2
20260506015019 59 0.0 1.7 0.00 0.14 0.14 89 1007.2
20260506014021 59 0.0 0.9 0.00 0.14 0.14 90 1006.9
20260506013036 59 0.0 0.0 0.00 0.14 0.14 91 1006.9
20260506012020 59 0.0 0.9 0.00 0.14 0.14 91 1006.8
20260506011021 59 0.0 1.7 0.00 0.14 0.14 93 1006.8
20260506010020 59 0.0 0.9 0.00 0.14 0.14 94 1006.7
20260506005040 59 0.0 1.7 0.00 0.14 0.14 95 1006.5
20260506004021 59 0.0 0.0 0.00 0.14 0.14 96 1006.5
20260506003020 59 0.0 0.9 0.00 0.14 0.14 95 1006.5
20260506002037 59 0.0 0.0 0.00 0.14 0.14 95 1006.3
20260506001021 59 0.0 0.9 0.00 0.14 0.14 95 1006.5
20260506000020 59 0.0 0.9 0.00 0.14 0.14 95 1006.4
20260505235041 60 0.0 0.0 0.00 0.14 0.14 94 1006.5
20260505234021 60 0.0 0.9 0.00 0.14 0.14 93 1006.3
20260505233020 60 0.0 1.7 0.00 0.14 0.14 91 1006.0
20260505232020 61 0.0 1.7 0.00 0.14 0.14 92 1006.0
20260505231016 61 0.0 1.7 0.00 0.14 0.14 92 1005.5
20260505230020 61 0.0 1.7 0.00 0.14 0.14 93 1005.5
20260505225041 61 0.0 1.7 0.00 0.14 0.14 93 1005.6
20260505224040 61 0.0 1.7 0.00 0.14 0.14 93 1005.7
20260505223021 61 0.0 3.5 0.00 0.14 0.14 92 1005.3
20260505222020 61 0.0 3.5 0.00 0.14 0.14 93 1005.1
20260505221017 61 0.0 0.9 0.02 0.14 0.14 93 1005.3
20260505220017 62 0.0 0.9 0.02 0.14 0.14 92 1005.1
20260505215041 61 0.0 0.9 0.03 0.14 0.14 89 1004.9
20260505214040 61 203 0.9 6.1 0.14 0.14 0.14 87 1005.0
20260505213040 61 113 1.7 7.0 0.14 0.14 0.14 90 1004.7